Tracking 32991 objects as of 22-Jan-2026
HD Live streaming from Space Station
objects crossing your sky now

FENGYUN 2G DEB

Track FENGYUN 2G DEB now!


NORAD ID: 43646
Int'l Code: 2014-090D
Perigee: 34,895.0 km
Apogee: 36,717.3 km
Inclination: 7.2 °
Period: 1,436.7 minutes
Semi major axis: 42177 km
RCS: Unknown
Launch date: December 31, 2014
Source: People's Republic of China (PRC)
Launch site: Xichang Space Center, China (XSC)

Note: This is SATELLITE DEBRIS
Your satellite tracking list
Your tracking list is empty




NASA's NSSDC Master Catalog

Two Line Element Set (TLE):
1 43646U 14090D   26021.59972894 -.00000243  00000-0  00000-0 0  9991
2 43646   7.1711  70.0766 0216025 280.4718  77.1477  1.00227445 40231
Source of the keplerian elements: AFSPC